sat.trackr.live / text

‹ back to catalog

TURKSAT 4A

NORAD 39522 · 2014-007A

PAYLOAD ACTIVE UNKNOWN

§ Identity

Operator
Country
TURK
Launch date
2014-02-14
Launch site
TYMSC
Launch vehicle
Mass (kg)
RCS (m²)
7.77

Purposes: comms

External: N2YO · Heavens-Above · Gunter

§ Orbital elements

Epoch: 2026-09-20T03:26:04.462080Z

Period
1,436.07 min
Inclination
0.0635°
Eccentricity
0.0003615
Mean motion
1.00273484 rev/d
Perigee alt
35,770.9 km
Apogee alt
35,801.4 km
Semi-major
42,164.3 km
B*
0.0000e+0
RAAN
291.9198°
Arg perigee
313.0479°
Mean anomaly
207.5907°
Rev number
4,592

§ Raw data

TURKSAT 4A1 39522U 14007A   26263.14310720  .00000142  00000+0  00000+0 0  99952 39522   0.0635 291.9198 0003615 313.0479 207.5907  1.00273484 45927

JSON: /api/v1/satellites/39522 · /tle

For live sub-satellite position, see the globe view (requires WebGL).

§ Visibility from observer

Set your observer location to see the next 7 days of passes ≥ 10°. The values pass through the URL so the page stays shareable.

No JS? Fill the form by hand. The geolocation button needs JavaScript.